Location: Bois de la Silve
(44.4667°N, 6.7833°E)
Time: 09:43:24
(UTC+00:00)

SL-8 R/B - Pass Details

Date: 14 July 2020
Orbit: 656 x 668 km, 48.4° (Epoch: 06 August)

Event Time Altitude Azimuth Distance (km) Brightness Sun altitude
Exits shadow 01:46:36 19° 263° (W) 1,559 5.3 -17.7°
Maximum altitude 01:50:00 68° 344° (NNW) 714 3.9 -17.4°
Drops below altitude 10° 01:54:47 10° 68° (ENE) 2,080 7.1 -17.0°
Sets 01:57:09 0° 71° (ENE) 2,992 8.0 -16.7°
